Probability
0 0 0 0 0 0 0 0 0 0 0 0 0 0 0 0 0 0 0 0 0 0 0 0 0 0 0 0 0 0 0 0 0 0 0 0 0 0 0 0 0 0 0
0 0 0 0 0 0 0 0 0 0 0 0 0 0 0 0 0 0 0 0 0 0 0 0 0 0 0 0 0 0 0 0 0 0 0 0 0 0 0 0 0 0 0
0 0 0 0 0 0 0 0 0 0 0 0 0 0 0 0 0 0 0 0 0 0 0 0 0 0 0 0 0 0 0 0 0 0 0 0 0 0 0 0 0 0 0
0 0 0 0 0 0 0 0 0 0 0 0 0 0 0 0 0 0 0 0 0 0 0 0 0 0 0 0 0 0 0 0 0 0 0 0 0 0 0 0 0 0 0
0 0 0 0 0 0 0 0 0 0 0 0 0 0 0 0 0 0 0 0 0 0 0 0 0 0 0 0 0 0 0 0 0 0 0 0 0 0 0 0 0 0 0
0 0 0 0 0 0 0 0 0 0 0 0 0 0 0 0 0 0 0 0 0 0 0 0 0 0 0 0 0 0 0 0 0 0 0 0 0 0 0 0 0 0 0
0 0 0 0 0 0 0 0 0 0 0 0 0 0 0 0 0 0 0 0 0 0 0 0 0 0 0 0 0 0 0 0 0 0 0 0 0 0 0 0 0 0 0
0 0 0 0 0 0 0 0 0 0 0 0 0 0 0 0 0 0 0 0 0 0 0 0 0 0 0 0 0 0 0 0 0 0 0 0 0 0 0 0 0 0 0
0 0 0 0 0 0 0 0 0 0 0 0 0 0 0 0 0 0 0 0 0 0 0 0 0 0 0 0 0 0 0 0 0 0 0 0 0 0 0 0 0 0 0
0 0 0 0 0 0 0 0 0 0 0 0 0 0 0 0 0 0 0 0 0 0 0 0 0 0 0 0 0 0 0 0 0 0 0 0 0 0 0 0 0 0 0
0 0 0 0 0 0 0 0 0 0 0 0 0 0 0 0 0 0 0 0 0 0 0 0 0 0 0 0 0 0 0 0 0 0 0 0 0 0 0 0 0 0 0
0 0 0 0 0 0 0 0 0 0 0 0 0 0 0 0 0 0 0 0 0 0 0 0 0 0 0 0 0 0 0 0 0 0 0 0 0 0 0 0 0 0 0
0 0 0 0 0 0 0 0 0 0 0 0 0 0 0 0 0 0 0 0 0 0 0 0 0 0 0 0 0 0 0 0 0 0 0 0 0 0 0 0 0 0 0
0 0 0 0 0 0 0 0 0 0 0 0 0 0 0 0 0 0 0 0 0 0 0 0 0 0 0 0 0 0 0 0 0 0 0 0 0 0 0 0 0 0 0
0 0 0 0 0 0 0 0 0 0 0 0 0 0 0 0 0 0 0 0 0 0 0 0 0 0 0 0 0 0 0 0 0 0 0 0 0 0 0 0 0 0 0
0 0 0 0 0 0 0 0 0 0 0 0 0 0 0 0 0 0 0 0 0 0 0 0 0 0 0 0 0 0 0 0 0 0 0 0 0 0 0 0 0 0 0
0 0 0 0 0 0 0 0 0 0 0 0 0 0 0 0 0 0 0 0 0 0 0 0 0 0 0 0 0 0 0 0 0 0 0 0 0 0 0 0 0 0 0
0 0 0 0 0 0 0 0 0 0 0 0 0 0 0 0 0 0 0 0 0 0 0 0 0 0 0 0 0 0 0 0 0 0 0 0 0 0 0 0 0 0 0
0 0 0 0 0 0 0 0 0 0 0 0 0 0 0 0 0 0 0 0 0 0 0 0 0 0 0 0 0 0 0 0 0 0 0 0 0 0 0 0 0 0 0
0 0 0 0 0 0 0 0 0 0 0 0 0 0 0 0 0 0 0 0 0 0 0 0 0 0 0 0 0 0 0 0 0 0 0 0 0 0 0 0 0 0 0
0 0 0 0 0 0 0 0 0 0 0 0 0 0 0 0 0 0 0 0 0 0 0 0 0 0 0 0 0 0 0 0 0 0 0 0 0 0 0 0 0 0 0
0 0 0 0 0 0 0 0 0 0 0 0 0 0 0 0 0 0 0 0 0 0 0 0 0 0 0 0 0 0 0 0 0 0 0 0 0 0 0 0 0 0 0
0 0 0 0 0 0 0 0 0 0 0 0 0 0 0 0 0 0 0 0 0 0 0 0 0 0 0 0 0 0 0 0 0 0 0 0 0 0 0 0 0 0 0
0 0 0 0 0 0 0 0 0 0 0 0 0 0 0 0 0 0 0 0 0 0 0 0 0 0 0 0 0 0 0 0 0 0 0 0 0 0 0 0 0 0 0
0 0 0 0 0 0 0 0 0 0 0 0 0 0 0 0 0 0 0 0 0 0 0 0 0 0 0 0 0 0 0 0 0 0 0 0 0 0 0 0 0 0 0
0 0 0 0 0 0 0 0 0 0 0 0 0 0 0 0 0 0 0 0 0 0 0 0 0 0 0 0 0 0 0 0 0 0 0 0 0 0 0 0 0 0 0
Height
5815 5813 5811 5809 5807 5805 5803 5801 5799 5797 5795 5794 5792 5791 5791 5790 5788 5787 5785 5782 5780 5777 5775 5773 5771 5768 5767 5765 5762 5760 5758 5756 5751 5749 5749 5747 5744 5742 5739 5734 5731 5728 5724
5809 5807 5805 5803 5801 5799 5797 5795 5793 5790 5788 5786 5784 5782 5781 5780 5778 5776 5774 5771 5769 5766 5764 5761 5759 5756 5754 5752 5750 5747 5744 5741 5738 5735 5732 5732 5732 5728 5724 5720 5717 5713 5709
5803 5801 5799 5797 5794 5792 5790 5787 5785 5783 5780 5778 5776 5773 5771 5769 5767 5764 5762 5760 5757 5755 5752 5750 5747 5744 5741 5739 5736 5732 5730 5727 5724 5720 5716 5714 5715 5713 5711 5707 5703 5698 5694
5797 5794 5792 5790 5787 5784 5782 5779 5777 5774 5771 5769 5766 5764 5761 5759 5756 5754 5751 5748 5746 5743 5740 5737 5734 5731 5728 5725 5722 5718 5715 5711 5709 5705 5702 5698 5695 5692 5692 5692 5688 5683 5678
5790 5787 5784 5782 5778 5775 5773 5770 5767 5765 5762 5760 5757 5754 5751 5749 5746 5743 5740 5736 5733 5730 5727 5724 5720 5717 5714 5711 5707 5703 5699 5696 5692 5689 5686 5682 5678 5674 5670 5671 5671 5666 5662
5783 5780 5777 5773 5769 5766 5764 5761 5758 5755 5753 5750 5747 5744 5740 5737 5734 5731 5727 5724 5721 5717 5713 5709 5706 5702 5699 5696 5691 5687 5683 5680 5676 5672 5668 5665 5661 5658 5652 5649 5649 5647 5644
5775 5772 5768 5765 5761 5758 5755 5752 5749 5746 5742 5739 5736 5732 5729 5725 5722 5718 5715 5711 5707 5703 5699 5694 5691 5687 5683 5679 5674 5670 5667 5663 5659 5655 5651 5647 5644 5640 5635 5630 5628 5625 5624
5767 5764 5760 5757 5753 5750 5747 5743 5740 5736 5733 5729 5725 5721 5717 5714 5710 5705 5701 5697 5693 5688 5683 5679 5674 5670 5666 5661 5657 5653 5650 5645 5641 5637 5633 5629 5626 5621 5616 5612 5607 5604 5604
5760 5756 5753 5749 5746 5742 5738 5735 5731 5727 5723 5719 5715 5710 5706 5702 5697 5693 5688 5683 5678 5673 5668 5663 5658 5653 5648 5644 5639 5635 5632 5627 5623 5619 5614 5610 5607 5602 5598 5593 5589 5584 5582
5752 5749 5746 5742 5738 5734 5730 5726 5722 5718 5714 5709 5705 5700 5694 5689 5684 5679 5674 5668 5663 5658 5652 5647 5641 5636 5631 5626 5621 5617 5613 5608 5605 5600 5595 5592 5588 5583 5578 5574 5570 5565 5561
5745 5741 5738 5734 5729 5726 5722 5717 5713 5708 5704 5699 5693 5688 5682 5677 5671 5665 5660 5654 5648 5642 5636 5630 5624 5619 5613 5608 5603 5599 5594 5590 5586 5581 5577 5573 5568 5563 5559 5554 5550 5546 5541
5737 5733 5729 5725 5721 5717 5712 5707 5702 5697 5692 5687 5681 5675 5669 5663 5657 5651 5644 5638 5632 5626 5619 5613 5607 5601 5595 5590 5584 5580 5575 5570 5566 5562 5557 5554 5548 5544 5540 5535 5531 5527 5522
5729 5724 5720 5716 5712 5707 5702 5697 5691 5685 5680 5674 5668 5661 5655 5648 5642 5635 5628 5621 5615 5608 5601 5595 5589 5583 5577 5571 5565 5561 5556 5551 5547 5542 5537 5534 5528 5525 5520 5515 5511 5507 5503
5720 5715 5711 5706 5701 5696 5690 5685 5679 5673 5666 5660 5653 5646 5639 5632 5625 5618 5611 5604 5596 5590 5583 5576 5569 5563 5557 5551 5546 5541 5536 5532 5528 5523 5518 5514 5509 5505 5500 5496 5492 5488 5483
5710 5705 5700 5695 5689 5684 5678 5672 5665 5658 5651 5644 5637 5630 5622 5614 5607 5599 5592 5584 5577 5569 5563 5556 5549 5543 5537 5531 5525 5521 5516 5512 5508 5503 5498 5494 5489 5485 5480 5476 5473 5468 5464
5699 5694 5688 5682 5677 5670 5664 5657 5650 5643 5635 5627 5619 5611 5604 5596 5587 5579 5572 5564 5556 5549 5542 5535 5528 5522 5516 5510 5504 5500 5496 5492 5488 5483 5478 5474 5469 5465 5461 5457 5453 5449 5445
5687 5682 5676 5669 5663 5656 5648 5641 5633 5625 5617 5608 5600 5592 5583 5575 5567 5559 5550 5542 5535 5528 5521 5513 5507 5501 5495 5488 5484 5479 5476 5473 5468 5464 5459 5455 5450 5445 5441 5437 5433 5430 5425
5674 5668 5661 5654 5647 5639 5632 5624 5615 5606 5598 5589 5580 5570 5562 5554 5546 5537 5529 5521 5513 5506 5499 5493 5486 5480 5475 5468 5464 5460 5456 5453 5449 5445 5440 5436 5432 5427 5422 5419 5416 5411 5407
5660 5653 5646 5638 5630 5622 5613 5605 5596 5587 5577 5568 5559 5549 5540 5532 5524 5515 5507 5499 5492 5485 5478 5472 5466 5460 5455 5449 5445 5441 5438 5435 5430 5426 5422 5418 5414 5409 5404 5401 5398 5394 5389
5645 5638 5629 5621 5612 5603 5594 5586 5577 5567 5557 5548 5538 5528 5518 5509 5501 5493 5485 5478 5471 5465 5459 5453 5446 5441 5436 5431 5426 5422 5420 5417 5413 5408 5404 5399 5395 5391 5386 5383 5380 5377 5372
5629 5620 5612 5603 5594 5584 5575 5566 5556 5546 5536 5527 5517 5508 5497 5488 5479 5472 5464 5457 5451 5445 5440 5434 5429 5423 5417 5413 5409 5405 5401 5398 5395 5391 5387 5382 5378 5374 5370 5366 5363 5359 5354
5612 5603 5595 5586 5575 5564 5555 5546 5536 5526 5517 5507 5498 5488 5478 5468 5459 5452 5445 5438 5432 5427 5422 5416 5412 5406 5401 5396 5392 5388 5384 5380 5378 5374 5370 5366 5362 5358 5354 5350 5346 5342 5337
5594 5585 5577 5568 5557 5545 5534 5524 5516 5506 5497 5488 5478 5469 5460 5451 5442 5434 5428 5422 5415 5410 5405 5400 5396 5392 5386 5381 5376 5372 5368 5364 5361 5358 5355 5351 5347 5343 5339 5334 5330 5325 5321
5576 5567 5558 5550 5540 5529 5517 5505 5495 5486 5478 5470 5461 5452 5443 5436 5428 5419 5412 5406 5401 5395 5390 5386 5381 5377 5372 5367 5362 5358 5353 5349 5346 5343 5340 5336 5332 5327 5323 5319 5315 5310 5305
5559 5549 5540 5531 5521 5510 5500 5488 5477 5468 5461 5453 5445 5436 5428 5420 5413 5406 5399 5393 5388 5381 5376 5372 5367 5363 5359 5354 5349 5344 5341 5336 5333 5329 5326 5322 5318 5313 5309 5305 5300 5296 5291
5541 5531 5522 5512 5502 5492 5483 5472 5462 5453 5445 5438 5430 5422 5414 5407 5400 5393 5388 5382 5375 5370 5364 5359 5354 5350 5346 5342 5337 5333 5328 5324 5321 5317 5314 5309 5305 5300 5296 5292 5287 5282 5278
Wind_Speed
19 20 20 21 23 24 25 27 28 30 31 33 34 35 36 38 39 41 43 44 46 48 50 51 53 54 55 56 57 58 58 59 61 61 61 60 61 60 61 62 63 63 63
21 21 21 22 23 25 26 27 29 30 32 34 35 36 37 38 39 41 43 45 48 50 52 53 55 56 57 58 59 60 61 62 63 64 65 64 63 62 64 65 65 65 65
21 22 23 24 25 27 28 29 30 31 33 34 36 37 39 40 41 43 45 47 49 51 52 54 56 57 59 60 61 62 64 64 65 66 67 67 66 66 65 65 65 66 66
23 24 25 26 28 29 30 31 32 33 35 36 37 38 40 41 43 45 46 48 50 51 53 55 57 58 60 61 62 64 66 67 67 68 68 69 70 70 69 66 66 66 66
25 26 27 29 30 31 32 33 34 34 35 36 38 39 41 42 44 46 48 49 51 53 54 56 58 60 61 62 64 66 67 68 69 69 70 70 71 71 71 69 67 67 66
26 26 28 30 32 33 34 34 35 36 37 38 39 41 42 44 45 47 49 50 52 54 56 58 60 61 63 64 65 67 68 69 69 70 71 71 71 71 72 72 70 68 67
25 26 28 30 31 32 33 33 34 35 36 37 38 39 41 42 44 46 48 50 52 55 57 59 61 62 63 65 66 67 67 68 69 70 71 71 71 71 72 72 70 69 68
25 26 27 29 30 31 31 32 33 34 35 36 37 39 40 42 43 45 47 49 51 53 56 58 61 63 65 66 67 68 68 69 70 70 71 71 70 71 71 71 71 70 68
25 26 27 28 30 31 32 32 33 34 36 37 39 41 42 44 45 47 49 51 52 54 56 58 60 62 64 65 66 67 67 69 69 70 70 70 70 70 70 71 71 71 69
26 27 28 29 30 31 32 33 35 36 38 39 41 43 44 46 47 49 50 51 53 54 56 57 59 60 62 63 64 64 65 66 67 67 68 68 69 70 70 70 69 70 70
28 29 30 30 31 33 34 36 38 40 41 43 44 46 48 50 51 52 53 54 55 56 58 59 60 61 62 63 64 64 65 66 66 67 67 67 68 68 68 69 69 69 70
30 31 32 33 35 37 38 40 42 44 46 47 49 51 52 54 55 56 57 58 59 59 60 61 62 63 64 64 64 65 65 66 66 67 67 66 67 67 67 68 68 69 69
33 34 35 37 39 41 43 45 47 49 51 53 54 56 57 58 59 60 61 62 63 63 64 64 65 65 65 65 65 66 66 66 66 67 67 67 67 66 66 67 68 68 69
36 38 40 42 44 46 48 50 52 54 56 58 59 61 62 63 63 64 65 65 66 67 67 67 67 67 67 67 67 67 67 67 67 67 67 67 67 67 67 67 67 67 67
41 43 45 47 49 51 53 55 57 59 61 63 64 66 67 67 68 68 68 69 69 69 68 68 67 67 67 67 67 67 67 66 66 66 66 66 66 66 66 66 65 65 65
45 47 49 52 54 56 59 61 62 64 66 68 69 70 71 71 71 71 71 71 70 70 69 68 68 67 67 67 67 66 64 64 64 64 64 64 64 64 64 64 64 63 63
49 51 54 56 59 62 64 66 68 69 71 72 73 74 75 74 74 73 73 72 71 70 69 68 68 67 66 66 65 63 62 61 61 60 60 60 60 61 62 62 62 62 62
53 56 59 61 64 66 69 71 72 74 75 76 77 77 77 76 75 74 73 72 71 69 69 68 67 66 64 63 62 61 60 60 59 58 58 58 58 59 60 60 60 60 60
58 61 64 66 69 71 73 74 76 77 78 79 79 78 78 77 75 73 72 70 69 68 67 66 65 63 61 61 60 59 58 57 56 56 57 57 57 57 58 57 56 56 57
62 65 68 70 72 74 76 77 78 79 80 80 79 79 77 76 74 72 70 69 67 65 64 62 61 60 59 58 57 57 56 55 55 55 55 55 55 55 55 55 54 54 55
67 69 72 73 75 77 78 79 80 80 81 80 78 76 75 73 71 69 67 65 63 61 60 58 57 56 56 55 55 54 54 54 53 53 53 52 53 52 52 52 53 53 54
70 72 74 75 77 78 80 80 80 80 79 78 75 72 70 68 66 64 62 60 59 57 56 54 53 53 52 52 52 52 52 52 51 50 49 49 50 50 51 51 52 52 53
73 74 76 77 78 79 80 80 79 78 76 73 70 67 65 63 61 60 58 56 54 53 52 51 50 49 49 49 49 49 49 49 48 47 47 47 48 49 49 50 50 50 51
75 76 77 78 77 77 77 77 76 74 71 68 65 62 60 58 56 55 54 52 51 50 49 48 47 46 45 46 46 46 46 45 45 45 45 45 46 47 47 47 47 48 48
76 77 78 78 77 76 74 73 71 68 65 62 60 57 56 54 53 51 50 48 47 48 46 45 44 43 42 42 43 42 41 40 41 42 42 43 44 44 45 45 45 46 46
76 77 76 76 74 72 70 67 65 63 61 58 55 53 52 50 48 46 45 45 45 44 43 42 41 39 39 39 38 38 37 37 38 38 39 40 40 41 42 43 43 43 42
Wind_Direction
290 288 287 287 286 286 285 283 281 279 278 277 275 273 272 271 270 270 269 269 269 269 270 270 270 271 272 273 274 275 276 277 278 279 280 281 283 284 285 285 287 288 288
293 292 291 290 289 288 286 284 282 281 279 278 278 277 275 274 273 272 271 270 269 269 270 271 272 273 274 275 275 276 276 277 278 280 281 282 282 283 284 285 287 287 287
293 294 293 292 291 289 287 285 283 282 280 280 280 279 278 277 275 274 273 273 274 274 274 274 275 275 276 276 277 277 278 279 279 281 282 283 283 282 283 285 285 286 286
293 293 293 292 292 290 289 287 285 284 283 282 281 281 280 279 278 278 277 277 276 276 275 275 276 276 277 278 278 279 279 280 280 281 282 283 284 284 284 284 284 284 284
294 294 294 294 293 291 290 289 288 287 286 286 285 284 283 282 281 280 279 278 278 277 277 276 276 276 277 277 278 279 279 279 280 281 282 282 283 284 284 284 284 283 284
297 296 296 295 294 294 293 292 292 291 290 289 288 287 286 285 284 282 281 280 280 279 279 278 278 278 278 278 278 278 278 279 280 280 281 282 283 283 283 284 284 283 283
300 299 298 297 297 297 297 297 296 295 295 294 293 292 290 289 288 286 285 284 282 281 280 279 279 279 278 278 278 278 279 279 280 281 281 282 282 283 283 284 284 283 283
302 301 301 300 300 301 301 300 300 299 299 298 297 296 295 293 292 290 289 287 286 284 282 281 281 280 279 278 278 278 279 279 279 280 281 281 282 282 282 283 283 282 282
304 303 303 303 303 303 303 303 302 302 302 301 300 299 298 297 295 294 292 290 288 287 285 284 282 281 280 280 279 279 279 279 279 279 280 280 281 281 282 282 282 282 282
305 305 305 304 304 303 303 303 303 303 303 302 301 300 299 298 297 295 294 292 291 289 288 287 286 284 283 282 280 280 279 279 279 279 279 280 280 280 281 281 281 282 283
304 305 305 304 304 304 304 303 303 303 303 302 301 300 299 298 297 296 294 293 292 291 290 289 287 286 284 283 282 281 281 280 280 280 280 280 280 280 280 280 281 281 282
303 304 304 303 304 304 304 303 303 303 302 302 301 300 299 298 297 296 295 293 292 291 290 289 288 287 285 284 283 282 281 281 281 281 281 281 280 280 280 281 281 281 281
302 302 302 303 303 303 303 303 303 303 302 302 301 300 299 298 297 296 295 294 293 291 290 289 288 287 285 284 283 282 282 281 281 281 281 280 280 280 281 281 281 281 282
300 301 302 302 303 303 303 303 303 302 302 301 300 300 299 298 297 296 295 294 292 291 290 289 288 287 285 284 283 282 282 281 281 281 281 281 280 280 280 281 281 281 281
300 301 302 303 303 303 303 303 302 301 301 301 301 300 300 299 298 297 296 294 293 292 290 289 288 287 285 284 283 282 282 281 281 281 281 281 280 280 280 281 281 281 281
300 302 302 303 303 302 302 302 302 302 301 301 301 300 300 299 298 297 296 294 293 292 291 290 288 287 285 284 283 283 282 282 282 282 281 281 281 280 280 280 280 280 281
301 301 302 302 303 303 303 303 303 302 302 301 301 301 300 299 299 297 296 295 293 292 291 289 288 287 285 285 284 284 284 283 283 282 282 281 281 281 281 280 281 281 282
301 302 303 303 303 304 303 303 303 303 302 302 302 302 301 300 299 298 296 294 293 292 290 289 288 287 286 286 285 285 285 285 284 283 282 282 281 281 281 281 281 282 282
302 303 303 304 304 304 304 304 304 304 303 303 303 302 301 300 299 297 295 294 292 291 290 290 289 288 288 287 286 286 286 285 285 283 283 282 281 281 281 281 281 282 282
303 303 304 305 305 305 305 305 305 304 304 304 303 303 301 300 299 297 296 294 293 292 291 291 290 289 288 288 287 287 286 285 284 284 284 283 282 281 282 282 282 283 283
304 304 305 305 305 305 305 306 306 305 305 305 304 304 302 301 300 298 297 295 294 293 293 292 291 290 289 288 288 287 287 286 285 285 284 283 283 283 283 283 284 285 285
304 305 305 306 306 306 306 306 306 306 306 305 305 304 303 301 300 299 297 296 295 294 294 293 292 291 291 290 289 288 288 287 286 285 284 284 284 284 285 285 286 286 286
304 305 306 307 307 307 307 307 307 307 307 306 306 305 303 302 301 300 299 298 296 296 295 295 294 293 292 292 291 290 289 288 287 286 285 285 285 285 286 287 287 287 287
305 306 306 307 307 307 308 308 308 308 308 307 307 306 305 303 302 300 300 299 298 297 296 296 296 295 294 292 292 291 291 289 288 288 287 287 287 287 288 288 288 288 288
305 306 307 307 308 308 309 309 308 308 309 309 308 307 306 304 303 302 301 300 299 299 298 298 298 297 296 295 294 294 293 291 290 290 290 289 289 289 289 290 290 290 289
306 307 308 308 309 309 309 309 309 309 310 310 309 308 307 306 305 303 302 302 301 301 300 300 301 301 301 299 298 297 296 294 293 292 292 292 292 292 292 292 292 292 291